CZ-5B R/B (45601 NORAD) Tracking and Keplerian Element Data

This shows tracking and keplerian element data for the satellite.

Feedback or suggestion? Click here.




ElementValue
Catalog45601
NameCZ-5B R/B
Epoch Orbit47
Epoch Day129.31136766
Epoch Year2020
RAAN310.8582
Inclination41.0865
Eccentricity0.0115638
Argument of Perigee190.9556
Mean Anonmoly168.9437
Mean Motion16.16065016
Decay Rate0.05819713
L11 45601U 20027C 20129.31136766 .05819713 70487-5 98389-3 0 9999
L22 45601 41.0865 310.8582 0115638 190.9556 168.9437 16.16065016 479

Live tracking and technical data element details for CZ-5B R/B (NORAD 45601). CZ-5B R/B can be tracked NOW for your location showing map with azimuth and elevation plus other details from your city location.

Track the satellite on the map from your city or location and see movement details for azimuth, elevation, latitude, longitude, range, height, and movement on the map or in text.







IsCatalogInMostPopularTable: catalog: 45601, numindb: 3
Update: records affected: 1



GetName: 45601 CZ-5B R/B

Hit Count: updated at: Mon, 25 May 2020 08:53:41 GMT